Location: PSU-Greenbush Astrophysical Observatory
(37.5140°N, 94.9880°W)
Time: 12:02:59
(UTC-06:00)

Altair - Pass Details

Date: 29 January 2020
Orbit: 1502 x 1682 km, 47.2° (Epoch: 22 February)

Event Time Altitude Azimuth Distance (km) Brightness Sun altitude
Rises 05:55:36 0° 204° (SSW) 4,783 9.9 -18.1°
Reaches altitude 10° 05:58:54 10° 196° (SSW) 3,826 9.5 -17.5°
Maximum altitude 06:07:46 40° 131° (SE) 2,276 8.9 -15.7°
Drops below altitude 10° 06:16:51 10° 67° (ENE) 3,937 10.5 -14.0°
Sets 06:20:17 0° 61° (ENE) 4,936 11.0 -13.3°
